Wind_Speed
19 19 19 20 20 19 18 16 15 14 14 14 12 10 11 12 13 13 14 16 16 16 16 14 14 14 17 20 16 15 15 15 17 18 17 16 14 11 10 8 7 7 7
24 25 24 24 24 22 19 18 16 17 14 16 15 13 12 9 8 9 10 12 13 13 13 11 13 13 14 12 13 14 15 14 12 13 11 10 14 10 9 8 8 7 7
28 29 29 29 28 26 24 21 18 15 16 16 15 13 10 8 7 6 6 5 4 5 6 6 4 3 5 8 10 12 12 13 10 10 9 7 4 10 11 9 8 8 8
27 29 31 33 33 30 25 23 20 18 17 18 16 14 12 11 9 8 8 9 9 9 7 6 5 6 7 8 9 11 12 12 12 10 9 9 9 9 5 12 12 11 11
22 21 21 20 22 23 24 23 22 21 20 19 18 17 15 13 11 9 9 9 7 5 5 6 6 8 9 11 12 12 12 12 13 11 9 9 9 9 9 7 10 15 12
21 18 16 18 20 22 24 25 23 22 21 20 19 17 14 12 10 7 5 4 3 3 2 3 6 8 10 12 13 14 14 14 13 13 13 13 12 10 9 12 14 15 19
25 24 22 23 23 23 24 25 24 23 22 22 20 17 13 12 11 11 9 8 7 5 5 5 8 10 12 14 14 14 14 14 13 12 13 14 16 15 13 12 14 15 17
20 23 27 26 25 23 25 25 24 23 22 21 18 17 13 13 16 17 14 13 11 10 10 11 11 13 14 15 17 17 15 15 14 13 12 13 14 16 17 17 17 16 14
18 19 23 31 29 26 25 25 24 24 22 22 21 20 18 19 20 18 17 17 16 16 16 16 18 15 17 17 18 20 18 17 15 14 13 13 14 14 16 17 20 21 19
20 21 24 25 33 32 22 26 25 25 24 26 25 24 24 23 23 22 22 22 22 21 20 21 23 19 18 20 20 21 19 18 18 16 14 14 15 16 16 17 19 19 19
20 19 25 26 26 36 31 26 26 29 29 25 22 25 28 30 30 28 27 24 27 32 29 23 25 25 21 24 22 21 19 17 19 18 15 15 15 16 18 19 18 19 20
22 25 24 27 30 32 35 34 29 32 29 25 24 26 28 31 33 36 36 33 35 37 37 26 41 36 32 26 23 20 19 17 17 19 17 17 17 17 18 20 20 21 23
23 22 22 29 34 30 32 32 32 33 29 30 29 31 32 33 32 38 43 50 39 38 41 37 41 28 33 28 22 24 23 20 17 18 19 19 18 19 19 21 21 24 27
20 15 21 26 30 30 29 29 28 28 26 25 26 29 30 31 34 38 40 43 45 45 47 46 41 27 30 32 27 27 23 20 21 17 19 21 23 22 21 22 22 24 26
22 19 21 26 28 29 29 29 29 27 27 26 26 24 21 20 30 39 44 41 38 39 45 43 35 38 31 37 32 30 24 24 23 20 20 23 24 26 25 26 26 27 28
21 20 20 25 25 23 27 30 30 29 27 26 23 23 24 24 28 27 28 34 33 35 37 33 31 27 32 35 34 31 26 26 27 27 22 26 29 27 28 28 28 29 31
29 27 26 24 26 25 28 29 28 28 28 29 29 28 26 27 27 25 27 28 28 28 30 29 28 28 31 31 32 33 32 33 30 36 33 29 30 30 28 30 29 32 33
33 33 30 30 31 30 29 28 28 30 32 33 31 29 27 18 15 16 20 25 27 26 24 27 28 27 34 32 30 34 36 33 41 38 40 36 33 29 26 27 31 34 33
39 37 37 34 33 34 31 31 33 35 35 34 31 25 17 11 14 16 24 26 27 27 26 27 29 28 31 31 34 33 37 37 43 40 47 39 34 32 25 29 31 33 32
34 37 37 35 38 35 33 36 37 36 36 31 21 17 12 15 18 29 31 24 26 25 24 25 27 27 31 31 32 36 36 35 37 43 48 45 35 32 25 27 32 34 34
35 33 38 37 38 36 36 38 36 35 33 25 22 18 14 16 26 36 25 25 23 20 21 23 26 28 30 36 33 31 33 35 36 39 40 28 27 26 26 28 32 35 35
37 38 39 35 36 36 35 36 35 34 28 24 21 18 21 27 26 29 25 24 22 20 23 25 25 26 28 32 34 28 37 35 33 33 31 29 26 27 28 30 33 35 36
30 31 27 24 28 31 31 30 33 29 27 23 21 20 22 21 28 28 25 23 22 23 22 21 23 25 28 31 31 32 29 33 33 30 31 28 28 28 30 31 34 34 32
26 28 29 31 32 31 30 29 24 23 22 23 25 26 27 29 30 24 23 23 24 22 21 21 23 27 30 23 25 26 28 27 26 28 28 28 28 29 31 32 31 29 30
30 31 30 30 28 25 22 19 16 14 13 20 23 25 26 24 24 25 25 24 21 20 19 22 23 24 23 24 27 25 22 23 26 27 27 27 28 29 30 28 28 28 27
27 27 26 21 20 20 21 23 26 25 28 34 32 25 24 25 25 25 24 21 20 19 19 21 23 23 24 21 20 21 24 25 25 25 26 27 28 28 27 27 26 26 24
Wind_Direction
226 225 225 227 225 224 226 220 215 218 219 218 217 227 232 237 248 253 250 256 260 263 264 264 270 275 276 283 292 297 297 297 296 296 302 304 298 294 291 284 276 274 274
224 227 227 230 233 234 234 232 221 222 217 211 214 221 227 231 243 251 252 250 251 254 259 266 261 266 277 286 295 300 303 302 295 291 299 303 314 299 296 291 287 273 266
224 233 235 236 236 236 236 239 229 218 209 208 208 203 199 208 211 213 211 207 195 198 220 228 248 273 293 305 308 309 309 311 312 303 302 295 260 299 301 300 290 280 269
226 226 234 238 239 237 238 232 216 204 200 198 190 184 184 178 166 146 130 117 112 109 103 93 73 42 9 343 332 322 319 315 316 310 300 282 277 277 298 299 295 288 280
220 225 229 227 226 224 220 213 198 192 191 187 184 183 179 170 163 148 129 112 96 88 63 43 29 19 2 356 347 333 322 316 307 306 301 292 279 274 278 267 292 302 296
236 225 216 214 207 207 203 197 190 184 188 187 187 183 178 179 174 167 163 162 154 106 78 30 8 357 353 346 342 344 336 322 311 306 302 299 293 277 265 268 280 288 293
245 242 223 214 211 210 199 196 192 190 192 193 192 186 185 192 202 206 200 196 206 231 272 301 320 327 333 331 331 335 334 322 313 306 298 296 293 292 282 279 279 281 282
246 247 242 236 226 218 209 205 200 199 198 196 195 197 201 209 216 216 216 219 233 246 270 286 298 307 314 320 319 321 322 321 319 306 297 292 289 293 295 296 291 285 288
235 239 238 237 230 223 219 216 210 209 203 198 197 204 208 214 218 222 229 237 250 261 271 283 287 294 302 308 308 306 313 317 316 311 305 297 291 295 293 294 296 298 294
253 241 234 234 231 230 219 217 216 216 211 207 210 215 219 225 228 229 228 242 250 264 268 272 281 284 289 294 295 298 306 314 313 311 309 305 303 301 298 297 295 294 297
260 260 250 237 233 228 225 216 214 211 215 217 219 228 238 241 239 242 234 274 258 257 267 264 276 276 279 286 287 290 296 307 310 308 310 310 306 306 300 301 292 290 291
253 276 261 229 221 221 223 221 216 212 219 229 236 240 244 248 247 248 245 267 269 256 266 261 307 274 268 267 275 278 290 298 299 301 311 310 315 310 301 303 301 298 299
266 270 233 219 213 221 221 222 220 218 235 239 244 249 252 257 258 253 257 257 268 266 264 270 308 278 265 266 273 270 278 290 295 305 315 311 311 309 303 302 303 306 302
261 247 221 208 212 221 224 216 216 220 226 233 242 251 259 265 264 264 270 273 272 274 269 276 287 308 266 261 269 269 274 288 293 302 308 309 309 310 299 295 301 309 302
253 246 229 212 213 220 219 213 215 220 226 233 242 253 259 261 263 266 268 280 285 289 274 279 288 284 274 260 271 258 263 279 278 288 298 301 299 302 303 300 299 307 302
249 244 251 225 213 215 217 216 220 223 228 236 242 245 249 254 258 260 268 274 283 286 287 285 288 280 276 254 265 252 265 264 271 274 280 286 288 296 295 294 296 304 307
241 250 247 234 218 217 216 215 219 224 230 236 238 247 254 261 263 271 279 286 281 268 271 276 276 273 270 257 252 249 260 265 268 266 269 273 283 285 292 295 299 304 305
247 246 242 229 218 220 220 220 224 231 237 238 242 250 260 249 271 280 289 290 284 275 265 269 262 263 268 259 243 246 256 268 279 277 283 277 282 279 285 294 297 301 303
244 242 235 231 221 226 229 226 238 241 240 238 242 253 245 264 297 301 307 291 281 274 273 260 258 264 269 256 241 245 259 274 288 282 292 292 276 274 274 286 292 296 296
232 236 232 231 222 226 231 234 239 242 240 238 232 227 240 282 304 307 300 287 281 275 271 261 261 268 274 256 242 244 259 279 291 293 292 298 273 283 285 289 294 297 297
222 227 230 229 226 231 234 233 233 230 231 223 221 229 272 294 303 305 290 286 274 262 263 263 266 266 268 250 245 246 261 278 288 294 291 293 282 285 292 293 294 295 297
221 225 224 228 230 231 222 221 225 229 218 213 227 259 286 308 298 286 284 273 264 266 268 271 267 267 261 242 242 260 266 276 286 290 281 284 285 290 293 293 293 294 298
216 218 223 223 213 208 211 221 226 214 218 230 259 293 289 294 285 284 281 263 269 274 270 270 266 258 251 241 249 268 271 282 290 285 290 287 289 291 292 293 293 296 296
194 193 191 193 195 195 201 207 211 220 236 255 272 281 283 279 273 265 260 266 266 264 267 261 256 257 248 254 266 270 282 287 286 287 285 287 287 291 292 294 294 291 293
183 183 185 189 192 193 195 206 229 261 283 291 285 277 280 267 257 256 261 263 260 264 261 256 264 260 259 268 283 295 293 289 288 286 285 287 286 291 292 292 293 295 296
188 189 188 195 203 221 240 263 268 275 287 280 274 272 261 259 260 263 259 257 259 257 261 261 258 264 277 288 292 290 287 285 283 281 282 284 285 287 287 290 290 294 294
Height
3191 3192 3194 3195 3197 3198 3200 3201 3202 3203 3205 3206 3208 3209 3211 3211 3211 3211 3210 3210 3210 3209 3209 3209 3209 3209 3209 3208 3205 3204 3203 3202 3200 3197 3196 3195 3194 3194 3193 3193 3193 3193 3193
3186 3187 3189 3191 3193 3195 3197 3198 3200 3200 3202 3203 3205 3206 3207 3208 3208 3208 3208 3207 3207 3206 3206 3207 3207 3208 3206 3205 3203 3201 3199 3199 3198 3196 3195 3194 3193 3192 3191 3191 3191 3191 3191
3181 3182 3184 3186 3189 3191 3193 3195 3197 3198 3199 3201 3202 3204 3205 3206 3206 3207 3206 3206 3205 3205 3205 3206 3205 3205 3204 3202 3200 3198 3196 3195 3196 3195 3194 3193 3195 3191 3189 3189 3189 3188 3188
3176 3178 3178 3180 3183 3187 3189 3191 3192 3194 3196 3198 3200 3202 3203 3204 3206 3206 3206 3206 3205 3205 3205 3204 3204 3203 3202 3201 3199 3197 3194 3193 3192 3193 3192 3192 3191 3190 3190 3186 3186 3186 3186
3171 3173 3175 3176 3179 3182 3184 3188 3189 3191 3193 3195 3197 3199 3201 3203 3205 3205 3205 3205 3205 3205 3204 3204 3204 3202 3201 3200 3198 3196 3193 3192 3190 3189 3189 3190 3189 3188 3187 3187 3185 3184 3184
3168 3170 3172 3174 3175 3178 3180 3184 3186 3188 3190 3193 3195 3197 3199 3201 3203 3203 3203 3204 3204 3204 3203 3202 3201 3200 3200 3199 3197 3194 3193 3191 3189 3187 3185 3185 3186 3186 3186 3185 3183 3181 3180
3163 3166 3167 3168 3171 3174 3177 3180 3182 3185 3187 3189 3192 3195 3197 3198 3200 3201 3201 3202 3202 3202 3201 3200 3200 3198 3197 3196 3194 3192 3191 3189 3187 3185 3184 3182 3181 3180 3180 3181 3180 3179 3176
3157 3159 3162 3164 3167 3170 3174 3177 3179 3182 3184 3186 3189 3192 3193 3195 3196 3197 3198 3199 3199 3198 3197 3197 3196 3196 3194 3193 3191 3189 3188 3186 3184 3183 3182 3181 3179 3177 3176 3175 3175 3174 3173
3152 3154 3156 3159 3162 3165 3168 3172 3176 3178 3180 3183 3185 3187 3189 3190 3191 3193 3194 3195 3195 3194 3193 3194 3193 3192 3191 3190 3188 3186 3184 3182 3180 3178 3178 3178 3177 3175 3173 3171 3169 3168 3168
3146 3148 3150 3152 3156 3160 3164 3168 3171 3174 3177 3178 3180 3183 3185 3186 3187 3189 3189 3189 3190 3190 3189 3189 3189 3188 3186 3186 3184 3183 3181 3179 3177 3175 3174 3173 3171 3170 3169 3167 3165 3164 3163
3142 3143 3145 3147 3150 3154 3159 3162 3165 3168 3171 3174 3177 3179 3180 3181 3182 3183 3184 3185 3185 3185 3183 3181 3184 3184 3181 3181 3180 3179 3177 3175 3174 3172 3170 3169 3168 3166 3164 3163 3161 3159 3159
3136 3137 3136 3139 3143 3146 3151 3155 3160 3162 3166 3170 3172 3174 3174 3175 3177 3177 3179 3177 3178 3178 3177 3178 3175 3174 3175 3174 3174 3173 3172 3170 3169 3167 3167 3165 3163 3163 3161 3158 3157 3155 3153
3129 3129 3130 3131 3136 3140 3144 3148 3153 3157 3162 3163 3165 3167 3167 3168 3171 3171 3170 3171 3172 3172 3170 3171 3170 3163 3167 3168 3168 3168 3167 3165 3163 3163 3162 3161 3159 3158 3156 3153 3152 3150 3148
3124 3124 3125 3128 3132 3135 3139 3144 3148 3151 3154 3157 3159 3159 3161 3163 3165 3165 3163 3164 3165 3163 3165 3168 3165 3161 3160 3161 3161 3162 3161 3160 3159 3157 3157 3156 3154 3153 3151 3149 3147 3144 3143
3119 3121 3122 3123 3127 3130 3134 3138 3142 3145 3148 3151 3152 3154 3154 3156 3157 3157 3157 3158 3159 3158 3158 3156 3156 3155 3153 3154 3155 3155 3155 3154 3154 3152 3151 3151 3149 3148 3145 3144 3141 3139 3136
3113 3115 3117 3119 3122 3125 3129 3133 3136 3139 3141 3144 3146 3146 3147 3148 3148 3149 3149 3149 3151 3149 3148 3148 3148 3146 3145 3146 3149 3150 3149 3147 3146 3147 3143 3143 3142 3140 3138 3137 3135 3132 3127
3108 3109 3112 3115 3117 3120 3123 3126 3130 3132 3135 3137 3138 3139 3141 3142 3141 3141 3141 3140 3141 3140 3140 3139 3139 3138 3137 3137 3141 3142 3140 3139 3139 3137 3135 3134 3133 3130 3130 3129 3127 3123 3120
3101 3102 3104 3107 3110 3114 3118 3120 3123 3125 3128 3130 3131 3133 3134 3135 3136 3135 3133 3132 3131 3130 3129 3130 3131 3129 3129 3130 3133 3134 3132 3133 3131 3131 3130 3127 3124 3121 3121 3120 3118 3115 3111
3091 3094 3096 3099 3103 3107 3110 3113 3116 3118 3120 3122 3124 3127 3129 3130 3131 3131 3130 3127 3123 3122 3121 3120 3121 3121 3122 3121 3123 3127 3127 3127 3125 3124 3120 3116 3115 3112 3113 3111 3110 3107 3105
3079 3083 3087 3091 3095 3099 3102 3105 3107 3110 3113 3115 3117 3119 3122 3123 3123 3124 3124 3121 3118 3116 3114 3114 3115 3115 3113 3115 3116 3120 3121 3121 3120 3116 3112 3107 3106 3105 3104 3103 3101 3097 3095
3069 3074 3078 3082 3087 3090 3094 3096 3099 3101 3104 3107 3110 3113 3113 3114 3115 3115 3115 3114 3112 3110 3109 3109 3108 3107 3106 3106 3109 3114 3114 3114 3111 3109 3106 3102 3100 3098 3096 3094 3092 3089 3086
3060 3064 3070 3074 3079 3082 3085 3088 3092 3095 3098 3101 3103 3104 3105 3106 3106 3107 3107 3106 3104 3104 3103 3102 3100 3099 3099 3100 3103 3107 3105 3105 3102 3100 3097 3095 3095 3091 3089 3087 3084 3081 3077
3053 3057 3063 3067 3072 3076 3081 3085 3087 3090 3093 3095 3095 3095 3097 3098 3103 3101 3100 3099 3098 3096 3096 3094 3093 3092 3092 3094 3097 3099 3097 3096 3095 3092 3090 3088 3087 3084 3082 3080 3076 3072 3069
3047 3053 3058 3063 3067 3071 3075 3078 3081 3084 3086 3088 3089 3090 3091 3089 3094 3093 3093 3092 3091 3089 3089 3087 3087 3086 3088 3088 3089 3089 3090 3087 3086 3086 3083 3081 3080 3078 3074 3070 3068 3064 3061
3045 3050 3056 3060 3065 3068 3071 3074 3075 3077 3079 3081 3083 3085 3084 3083 3086 3085 3085 3084 3084 3084 3083 3082 3083 3082 3081 3084 3084 3083 3082 3081 3080 3078 3075 3073 3071 3069 3066 3062 3060 3057 3054
3045 3050 3054 3059 3061 3064 3067 3069 3069 3069 3070 3073 3076 3076 3076 3077 3078 3078 3078 3077 3077 3078 3077 3077 3077 3078 3077 3077 3077 3077 3076 3074 3072 3071 3068 3065 3062 3060 3058 3055 3054 3051 3048